Flag for Greenland Weather past 2 weeks in Qaanaaq, Greenland

Now
39 °F

Mostly cloudy.


Feels Like: 37 °F
Forecast: 34 / 36 °F
Wind: 3 mph from Northwest

Location: Thule A. B.

Current Time: Jul 24, 2014 at 2:26:12 PM

Latest Report: Jul 24, 2014 at 1:58 PM


Visibility: N/A

Pressure: 29.94 "Hg

Humidity: 75%

Dew point: 32 °F

Location of QaanaaqLocation

Historic Weather in Qaanaaq — Graph

°F

Qaanaaq temperature yesterday

Maximum temperature yesterday: 46 °F (at 8:58 AM)
Minimum temperature yesterday: 37 °F (at 3:58 AM)
Average temperature yesterday: 40 °F

Past Weeks' High & Low Weather Summary

 TemperatureHumidityPressure
High55 °F (Jul 20, 9:58 AM)93% (Jul 11, 3:58 AM)30.07 "Hg (Jul 11, 3:58 AM)
Low36 °F (Jul 15, 8:58 PM)36% (Jul 20, 9:58 AM)29.38 "Hg (Jul 21, 2:58 AM)
Average43 °F75%29.77 "Hg
* Reported Jul 9 12:58 PM — Jul 24 12:58 PM, Qaanaaq, Weather by CustomWeather, © 2014

Note: Actual official high and low records may vary slightly from our data, if they occured in-between our weather recording intervals... More about our weather records

Advertising

Qaanaaq weather history for previous 24 hours

 ConditionsComfort  
Time TempWeatherWind HumidityBarometerVisibility
12:58 PM
Jul 24
37 °FLow clouds.2 mph81%29.94 "HgN/A
11:58 AM37 °FLow clouds.3 mph81%29.94 "HgN/A
10:58 AM37 °FLow clouds.7 mph80%29.95 "HgN/A
9:58 AM37 °FLow clouds.No wind81%29.94 "HgN/A
8:58 AM37 °FOvercast.1 mph81%29.93 "HgN/A
7:58 AM37 °FLow clouds.No wind81%29.92 "Hg4 mi
6:58 AM37 °FDense fog.2 mph81%29.92 "Hg1 mi
6:02 AM36 °FDense fog.5 mph87%29.95 "Hg0 mi
5:59 AM36 °FLow clouds.6 mph87%29.95 "Hg1 mi
4:58 AM41 °FPassing clouds.10 mph81%29.88 "HgN/A
3:58 AM39 °FSunny.10 mph81%29.87 "HgN/A
2:58 AM37 °FPartly sunny.No wind81%29.87 "HgN/A
1:58 AM37 °FMore clouds than sun.1 mph81%29.86 "HgN/A
1:03 AM37 °FMostly cloudy.7 mph81%29.91 "HgN/A
12:58 AM37 °FCloudy.7 mph81%29.86 "HgN/A
11:58 PM
Jul 23
37 °FOvercast.8 mph81%29.85 "HgN/A
10:58 PM37 °FMore clouds than sun.6 mph81%29.84 "HgN/A
9:58 PM37 °FOvercast.8 mph87%29.84 "HgN/A
8:58 PM44 °FOvercast.6 mph75%29.83 "HgN/A
7:58 PM41 °FBroken clouds.6 mph81%29.83 "HgN/A
7:04 PM37 °FLight rain. Mostly cloudy.No wind81%29.89 "Hg6 mi
6:59 PM37 °FLight rain. Mostly cloudy.No wind81%29.88 "Hg6 mi
5:58 PM37 °FLight rain. Mostly cloudy.5 mph87%29.83 "HgN/A
4:58 PM37 °FOvercast.6 mph87%29.82 "HgN/A
3:59 PM39 °FMore clouds than sun.2 mph87%29.86 "HgN/A
2:58 PM37 °FMostly cloudy.3 mph87%29.82 "HgN/A
Weather by CustomWeather, © 2014

See weather overviewHow to use our weather pages